Date,TemperatureHighF,TemperatureAvgF,TemperatureLowF,DewpointHighF,DewpointAvgF,DewpointLowF,HumidityHigh,HumidityAvg,HumidityLow,PressureMaxIn,PressureMinIn,WindSpeedMaxMPH,WindSpeedAvgMPH,GustSpeedMaxMPH,PrecipitationSumIn
2013-12-1,42.3,38.5,34.8,30.5,21.6,12.8,69,51,36,30.36,29.96,9,4,24,0.00
2013-12-2,43.2,39.1,37.0,32.5,30.6,26.9,79,71,62,29.96,29.79,3,1,24,0.00
2013-12-3,47.9,41.3,38.3,40.2,35.0,30.8,98,79,63,29.94,29.81,5,2,24,0.00
2013-12-4,54.1,47.3,40.7,47.2,44.7,40.2,100,91,73,30.00,29.92,5,2,24,0.00
2013-12-5,59.8,53.3,47.2,55.4,51.4,47.2,100,94,77,30.02,29.88,6,4,15,0.02
2013-12-6,58.0,51.4,31.2,58.0,51.4,31.2,100,100,95,29.96,29.81,11,4,19,1.45
2013-12-7,34.7,26.9,19.5,34.7,26.6,18.8,100,99,97,30.47,29.94,4,0,10,0.06
2013-12-8,31.3,22.1,17.1,31.3,21.5,15.9,100,97,95,30.47,30.28,0,0,9,0.00
2013-12-9,48.1,41.2,31.2,48.1,36.4,7.9,100,86,27,30.30,29.97,13,6,27,0.57
2013-12-10,38.9,28.0,19.3,30.2,19.8,7.9,98,76,28,30.15,29.84,10,4,27,0.09
2013-12-11,31.6,25.0,16.7,15.7,10.0,-0.7,76,53,32,30.37,30.15,13,6,24,0.00
2013-12-12,24.2,19.4,14.2,15.3,3.9,-3.0,72,52,33,30.33,30.22,10,6,19,0.00
2013-12-13,32.3,25.6,17.7,12.7,9.1,4.8,66,50,40,30.33,30.24,15,7,28,0.00
2013-12-14,39.3,31.0,25.9,39.3,25.6,8.0,100,83,35,30.30,29.70,8,3,13,0.31
2013-12-15,39.6,29.9,22.4,39.6,26.6,19.0,100,88,75,29.90,29.61,15,10,28,0.06
2013-12-16,33.1,26.9,22.3,27.9,23.5,19.8,93,87,80,30.13,29.88,12,6,25,0.00
2013-12-17,38.7,32.7,23.5,32.4,29.3,22.0,98,87,73,30.10,29.84,10,5,28,0.00
2013-12-18,33.2,24.3,18.5,22.0,15.0,4.5,94,70,30,30.24,29.90,11,6,20,0.00
2013-12-19,50.4,44.3,33.2,23.2,20.0,6.4,46,38,30,30.24,30.10,9,5,18,0.00
2013-12-20,54.5,49.9,45.4,41.3,24.9,17.4,68,39,24,30.10,29.97,7,5,17,0.00
2013-12-21,56.8,55.0,52.9,55.6,48.3,39.4,99,79,58,30.00,29.83,10,5,22,0.00
2013-12-22,58.2,54.4,51.1,58.0,53.5,49.2,100,97,84,29.94,29.79,12,7,25,0.47
2013-12-23,55.3,44.1,23.9,55.1,42.6,22.7,100,94,81,30.06,29.85,13,8,26,1.12
2013-12-24,25.7,18.9,9.6,22.6,13.4,0.9,97,80,53,30.42,30.05,12,8,24,0.00
2013-12-25,24.3,16.9,9.2,8.8,3.4,-6.3,74,56,33,30.53,30.37,8,3,15,0.00
2013-12-26,33.2,27.8,22.9,20.0,13.0,5.1,66,54,42,30.37,30.23,14,6,25,0.00
2013-12-27,38.4,31.4,23.8,16.6,13.0,8.2,60,47,35,30.44,30.34,6,3,14,0.00
2013-12-28,49.3,40.6,31.9,18.9,13.6,-1.4,53,35,12,30.35,30.12,8,5,18,0.00
2013-12-29,46.9,38.3,34.2,42.0,35.7,13.7,100,92,26,30.13,29.53,16,7,31,1.76
2013-12-30,34.3,31.2,25.4,32.3,27.0,21.7,93,85,73,30.09,29.76,15,6,31,0.00
2013-12-31,30.5,25.5,21.8,23.3,15.8,9.6,90,68,47,30.31,30.06,12,5,26,0.00